This demonstration page uses our WeatherBlox Daily Observations layout. Learn more.

Left ArrowRight Arrow

39.08367, -84.50855

Hourly Observations for November 8, 2022

Temp ( °F °C ) Dew Point ( °F °C ) Humidity (%) Winds ( mph kmh ) Pressure ( in mb ) Visibility ( mi km ) Precip ( " mm )
12:53 am 00:53 Clear 41 5 33 0.6 73 73 NNE 7 11 30.53 1034 10 16 0.00 0.00
1:53 am 01:53 Clear 43 6.1 30 -1.1 60 60 NE 9 15 30.52 1033 10 16 0.00 0.00
2:53 am 02:53 Clear 42 5.6 28 -2.2 57 57 Calm 30.53 1034 10 16 0.00 0.00
3:53 am 03:53 Clear 44 6.7 28 -2.2 53 53 NE 5 7 30.53 1034 10 16 0.00 0.00
4:53 am 04:53 Clear 45 7.2 30 -1.1 55 55 NE 12 19 30.55 1034 10 16 0.00 0.00
5:53 am 05:53 Clear 43 6.1 30 -1.1 60 60 NE 7 11 30.57 1035 10 16 0.00 0.00
6:53 am 06:53 Clear 41 5 30 -1.1 65 65 NNE 6 9 30.59 1036 10 16 0.00 0.00
7:53 am 07:53 Sunny 37 2.8 32 0 82 82 Calm 30.61 1037 10 16 0.00 0.00
8:53 am 08:53 Sunny 47 8.3 34 1.1 60 60 NE 8 13 30.62 1037 10 16 0.00 0.00
9:53 am 09:53 Sunny 51 10.6 34 1.1 52 52 NE 13 20 30.62 1037 10 16 0.00 0.00
10:53 am 10:53 Sunny 54 12.2 33 0.6 45 45 ENE 7 11 30.61 1037 10 16 0.00 0.00
11:53 am 11:53 Sunny 57 13.9 32 0 38 38 ENE 7 11 30.59 1036 10 16 0.00 0.00
12:53 pm 12:53 Sunny 59 15 32 0 36 36 NE 10 17 30.55 1035 10 16 0.00 0.00
1:53 pm 13:53 Sunny 60 15.6 32 0 34 34 NE 10 17 30.53 1034 10 16 0.00 0.00
2:53 pm 14:53 Sunny 62 16.7 31 -0.6 31 31 ENE 9 15 30.51 1033 10 16 0.00 0.00
3:53 pm 15:53 Sunny 62 16.7 30 -1.1 30 30 ENE 13 20 30.49 1033 10 16 0.00 0.00
4:53 pm 16:53 Sunny 59 15 30 -1.1 33 33 ENE 10 17 30.49 1032 10 16 0.00 0.00
5:53 pm 17:53 Clear 53 11.7 30 -1.1 41 41 NE 6 9 30.49 1032 10 16 0.00 0.00
6:53 pm 18:53 Clear 51 10.6 31 -0.6 46 46 NNE 6 9 30.49 1033 10 16 0.00 0.00
7:53 pm 19:53 Clear 46 7.8 35 1.7 65 65 N 3 6 30.49 1033 10 16 0.00 0.00
8:53 pm 20:53 Clear 45 7.2 34 1.1 65 65 NE 3 6 30.48 1032 10 16 0.00 0.00
9:53 pm 21:53 Clear 42 5.6 36 2.2 79 79 Calm 30.49 1033 10 16 0.00 0.00
10:53 pm 22:53 Clear 40 4.4 34 1.1 79 79 Calm 30.48 1032 10 16 0.00 0.00
11:53 pm 23:53 Clear 38 3.3 34 1.1 85 85 Calm 30.47 1032 10 16 0.00 0.00

Powered by AerisWeather